When you browse on this site, cookies collect data to enhance your experience and personalize the content and advertising you see.
Visit our Privacy Policy to learn more. By continuing to use the site, you agree to this use of cookies and data.
  • In Austria
  • List of Countries
  • For 7 days
  • Water Temperature
  • Satellite Maps
  • Weather Map
  • News
  • Weather Widgets
  • user-avatar
    Login

    Hourly Weather Fier

    Today, 20 July, Saturday

    Time Temperature Precipitation Wind Pressure Humidity
    00:00 +24°C° 0 mm 1 mps 761 mmHg 68%
    01:00 +23°C° 0 mm 2 mps 761 mmHg 69%
    02:00 +23°C° 0 mm 2 mps 761 mmHg 69%
    03:00 +23°C° 0 mm 1 mps 761 mmHg 68%
    04:00 +23°C° 0 mm 1 mps 761 mmHg 68%
    05:00 +24°C° 0 mm 1 mps 761 mmHg 63%
    06:00 +25°C° 0 mm 1 mps 762 mmHg 59%
    07:00 +27°C° 0 mm 1 mps 762 mmHg 52%
    08:00 +28°C° 0 mm 2 mps 762 mmHg 49%
    09:00 +30°C° 0 mm 2 mps 762 mmHg 45%
    10:00 +31°C° 0 mm 3 mps 762 mmHg 41%
    11:00 +33°C° 0 mm 3 mps 762 mmHg 41%
    12:00 +33°C° 0 mm 4 mps 762 mmHg 41%
    13:00 +33°C° 0 mm 5 mps 762 mmHg 41%
    14:00 +33°C° 0 mm 4 mps 762 mmHg 43%
    15:00 +32°C° 0 mm 4 mps 762 mmHg 45%
    16:00 +32°C° 0 mm 4 mps 762 mmHg 47%
    17:00 +29°C° 0 mm 4 mps 762 mmHg 53%
    18:00 +28°C° 0 mm 3 mps 762 mmHg 58%
    19:00 +26°C° 0 mm 2 mps 762 mmHg 64%
    20:00 +26°C° 0 mm 2 mps 762 mmHg 64%
    21:00 +25°C° 0 mm 1 mps 762 mmHg 64%
    22:00 +25°C° 0 mm 1 mps 763 mmHg 65%
    23:00 +24°C° 0 mm 1 mps 763 mmHg 64%

    Tomorrow, 21 July, Sunday

    Time Temperature Precipitation Wind Pressure Humidity
    00:00 +24°C° 0 mm 1 mps 763 mmHg 64%
    01:00 +24°C° 0 mm 1 mps 763 mmHg 64%
    02:00 +24°C° 0 mm 1 mps 762 mmHg 65%
    03:00 +23°C° 0 mm 1 mps 762 mmHg 66%
    04:00 +23°C° 0 mm 1 mps 762 mmHg 67%
    05:00 +24°C° 0 mm 1 mps 762 mmHg 63%
    06:00 +26°C° 0 mm 1 mps 762 mmHg 59%
    07:00 +27°C° 0 mm 1 mps 762 mmHg 54%
    08:00 +29°C° 0 mm 2 mps 762 mmHg 49%
    09:00 +31°C° 0 mm 2 mps 763 mmHg 44%
    10:00 +33°C° 0 mm 3 mps 763 mmHg 39%
    11:00 +34°C° 0 mm 4 mps 762 mmHg 39%
    12:00 +34°C° 0 mm 4 mps 762 mmHg 39%
    13:00 +34°C° 0 mm 5 mps 762 mmHg 40%
    14:00 +33°C° 0 mm 5 mps 762 mmHg 41%
    15:00 +33°C° 0 mm 4 mps 762 mmHg 42%
    16:00 +32°C° 0 mm 4 mps 762 mmHg 44%
    17:00 +30°C° 0 mm 3 mps 762 mmHg 50%
    18:00 +28°C° 0 mm 3 mps 762 mmHg 56%
    19:00 +27°C° 0 mm 2 mps 762 mmHg 62%
    20:00 +26°C° 0 mm 2 mps 762 mmHg 63%
    21:00 +26°C° 0 mm 2 mps 762 mmHg 64%
    22:00 +25°C° 0 mm 1 mps 763 mmHg 65%
    23:00 +25°C° 0 mm 1 mps 763 mmHg 65%

    Day after tomorrow, 22 July, Monday

    Time Temperature Precipitation Wind Pressure Humidity
    00:00 +25°C° 0 mm 1 mps 762 mmHg 64%
    01:00 +25°C° 0 mm 1 mps 762 mmHg 64%
    02:00 +25°C° 0 mm 1 mps 762 mmHg 64%
    03:00 +25°C° 0 mm 1 mps 762 mmHg 64%
    04:00 +24°C° 0 mm 1 mps 762 mmHg 64%
    05:00 +26°C° 0 mm 1 mps 762 mmHg 60%
    06:00 +27°C° 0 mm 1 mps 762 mmHg 56%
    07:00 +29°C° 0 mm 1 mps 762 mmHg 52%
    08:00 +30°C° 0 mm 2 mps 762 mmHg 48%
    09:00 +32°C° 0 mm 2 mps 762 mmHg 44%
    10:00 +35°C° 0 mm 2 mps 762 mmHg 40%
    11:00 +35°C° 0 mm 3 mps 762 mmHg 39%
    12:00 +36°C° 0 mm 4 mps 761 mmHg 38%
    13:00 +36°C° 0 mm 5 mps 761 mmHg 37%
    14:00 +35°C° 0 mm 5 mps 761 mmHg 40%
    15:00 +35°C° 0 mm 5 mps 761 mmHg 43%
    16:00 +34°C° 0 mm 5 mps 760 mmHg 45%
    17:00 +32°C° 0 mm 4 mps 760 mmHg 51%
    18:00 +30°C° 0 mm 3 mps 760 mmHg 57%
    19:00 +28°C° 0 mm 2 mps 760 mmHg 63%
    20:00 +27°C° 0 mm 2 mps 760 mmHg 65%
    21:00 +27°C° 0 mm 1 mps 761 mmHg 67%
    22:00 +26°C° 0 mm 1 mps 761 mmHg 69%
    23:00 +26°C° 0 mm 1 mps 761 mmHg 68%

    23 July, Tuesday

    Time Temperature Precipitation Wind Pressure Humidity
    00:00 +26°C° 0 mm 1 mps 760 mmHg 68%
    01:00 +26°C° 0 mm 1 mps 760 mmHg 68%
    02:00 +26°C° 0 mm 1 mps 760 mmHg 66%
    03:00 +26°C° 0 mm 1 mps 760 mmHg 64%
    04:00 +25°C° 0 mm 1 mps 760 mmHg 62%
    05:00 +27°C° 0 mm 2 mps 760 mmHg 57%
    06:00 +29°C° 0 mm 2 mps 760 mmHg 52%
    07:00 +30°C° 0 mm 2 mps 760 mmHg 48%
    08:00 +32°C° 0 mm 2 mps 760 mmHg 44%
    09:00 +34°C° 0 mm 3 mps 760 mmHg 40%
    10:00 +36°C° 0 mm 3 mps 760 mmHg 37%
    11:00 +36°C° 0 mm 4 mps 759 mmHg 37%
    12:00 +36°C° 0 mm 5 mps 759 mmHg 37%
    13:00 +36°C° 0 mm 6 mps 759 mmHg 37%
    14:00 +35°C° 0 mm 6 mps 758 mmHg 38%
    15:00 +35°C° 0 mm 6 mps 758 mmHg 40%
    16:00 +34°C° 0 mm 7 mps 758 mmHg 42%
    17:00 +32°C° 0 mm 5 mps 758 mmHg 49%
    18:00 +29°C° 0 mm 4 mps 758 mmHg 56%
    19:00 +27°C° 0 mm 3 mps 758 mmHg 63%
    20:00 +27°C° 0 mm 3 mps 758 mmHg 64%
    21:00 +26°C° 0 mm 2 mps 759 mmHg 65%
    22:00 +26°C° 0 mm 2 mps 759 mmHg 67%
    23:00 +26°C° 0 mm 2 mps 759 mmHg 64%

    24 July, Wednesday

    Time Temperature Precipitation Wind Pressure Humidity
    00:00 +26°C° 0 mm 2 mps 759 mmHg 60%
    01:00 +26°C° 0 mm 2 mps 759 mmHg 57%
    02:00 +25°C° 0 mm 2 mps 758 mmHg 55%
    03:00 +25°C° 0 mm 3 mps 758 mmHg 54%
    04:00 +25°C° 0 mm 3 mps 758 mmHg 52%
    05:00 +26°C° 0 mm 3 mps 758 mmHg 50%
    06:00 +28°C° 0 mm 3 mps 759 mmHg 48%
    07:00 +29°C° 0 mm 3 mps 759 mmHg 45%
    08:00 +31°C° 0 mm 3 mps 759 mmHg 41%
    09:00 +34°C° 0 mm 3 mps 759 mmHg 37%
    10:00 +35°C° 0 mm 3 mps 759 mmHg 32%
    11:00 +35°C° 0 mm 4 mps 759 mmHg 33%
    12:00 +36°C° 0 mm 5 mps 759 mmHg 34%
    13:00 +36°C° 0 mm 5 mps 759 mmHg 34%
    14:00 +35°C° 0 mm 6 mps 758 mmHg 37%
    15:00 +34°C° 0 mm 6 mps 758 mmHg 39%
    16:00 +34°C° 0 mm 7 mps 758 mmHg 41%
    17:00 +32°C° 0 mm 5 mps 758 mmHg 48%
    18:00 +29°C° 0 mm 4 mps 758 mmHg 55%
    19:00 +28°C° 0 mm 3 mps 758 mmHg 62%
    20:00 +27°C° 0 mm 3 mps 759 mmHg 63%
    21:00 +27°C° 0 mm 2 mps 759 mmHg 64%
    22:00 +26°C° 0 mm 2 mps 759 mmHg 64%
    23:00 +26°C° 0 mm 2 mps 759 mmHg 61%

    25 July, Thursday

    Time Temperature Precipitation Wind Pressure Humidity
    00:00 +26°C° 0 mm 2 mps 759 mmHg 58%
    01:00 +26°C° 0 mm 2 mps 759 mmHg 55%
    02:00 +26°C° 0 mm 2 mps 759 mmHg 55%
    03:00 +25°C° 0 mm 2 mps 759 mmHg 55%
    04:00 +25°C° 0 mm 2 mps 759 mmHg 55%
    05:00 +27°C° 0 mm 2 mps 759 mmHg 52%
    06:00 +28°C° 0 mm 2 mps 759 mmHg 49%
    07:00 +29°C° 0 mm 2 mps 760 mmHg 46%
    08:00 +31°C° 0 mm 2 mps 760 mmHg 42%
    09:00 +34°C° 0 mm 2 mps 760 mmHg 38%
    10:00 +34°C° 0 mm 1 mps 760 mmHg 35%
    11:00 +35°C° 0 mm 3 mps 760 mmHg 36%
    12:00 +35°C° 0 mm 4 mps 759 mmHg 38%
    13:00 +35°C° 0 mm 5 mps 759 mmHg 40%
    14:00 +34°C° 0 mm 4 mps 759 mmHg 42%
    15:00 +34°C° 0 mm 4 mps 759 mmHg 44%
    16:00 +33°C° 0 mm 3 mps 759 mmHg 47%
    17:00 +31°C° 0 mm 2 mps 759 mmHg 52%
    18:00 +29°C° 0 mm 2 mps 759 mmHg 57%
    19:00 +28°C° 0 mm 1 mps 759 mmHg 61%
    20:00 +27°C° 0 mm 1 mps 759 mmHg 62%
    21:00 +27°C° 0 mm 1 mps 759 mmHg 63%
    22:00 +26°C° 0 mm 1 mps 760 mmHg 64%
    23:00 +26°C° 0 mm 1 mps 759 mmHg 63%
    Show more